TimeCST,TemperatureF,Dew PointF,Humidity,Sea Level PressureIn,VisibilityMPH,Wind Direction,Wind SpeedMPH,Gust SpeedMPH,PrecipitationIn,Events,Conditions,WindDirDegrees,DateUTC
12:52 AM,57.9,57.0,97,30.02,7.0,Calm,Calm,-,0.01,,Clear,0,2012-12-06 06:52:00
1:52 AM,55.9,55.0,97,30.01,5.0,Calm,Calm,-,N/A,,Clear,0,2012-12-06 07:52:00
2:52 AM,55.9,54.0,93,29.99,6.0,Calm,Calm,-,N/A,,Clear,0,2012-12-06 08:52:00
2:57 AM,55.4,53.6,94,29.99,1.8,Calm,Calm,-,N/A,,Clear,0,2012-12-06 08:57:00
3:05 AM,55.4,53.6,94,29.99,0.2,Calm,Calm,-,N/A,,Clear,0,2012-12-06 09:05:00
3:13 AM,55.4,53.6,94,29.99,0.5,Calm,Calm,-,N/A,,Clear,0,2012-12-06 09:13:00
3:22 AM,53.6,53.6,100,29.99,0.2,Calm,Calm,-,N/A,,Clear,0,2012-12-06 09:22:00
3:32 AM,53.6,53.6,100,29.98,0.2,Calm,Calm,-,N/A,,Unknown,0,2012-12-06 09:32:00
3:52 AM,52.0,52.0,100,29.97,0.2,ENE,4.6,-,N/A,,Unknown,60,2012-12-06 09:52:00
4:02 AM,51.8,51.8,100,29.97,0.2,ENE,3.5,-,N/A,,Clear,60,2012-12-06 10:02:00
4:10 AM,51.8,51.8,100,29.97,0.2,Calm,Calm,-,N/A,,Unknown,0,2012-12-06 10:10:00
4:27 AM,53.6,51.8,94,29.96,1.2,Calm,Calm,-,N/A,,Mostly Cloudy,0,2012-12-06 10:27:00
4:32 AM,53.6,51.8,94,29.96,3.0,Calm,Calm,-,N/A,,Mostly Cloudy,0,2012-12-06 10:32:00
4:35 AM,53.6,51.8,94,29.96,2.0,Calm,Calm,-,N/A,,Scattered Clouds,0,2012-12-06 10:35:00
4:42 AM,53.6,51.8,94,29.96,1.5,Calm,Calm,-,N/A,,Mostly Cloudy,0,2012-12-06 10:42:00
4:52 AM,52.0,52.0,100,29.96,0.5,Calm,Calm,-,N/A,,Unknown,0,2012-12-06 10:52:00
5:09 AM,51.8,51.8,100,29.95,0.2,Calm,Calm,-,N/A,,Unknown,0,2012-12-06 11:09:00
5:23 AM,53.6,51.8,94,29.95,0.5,Calm,Calm,-,N/A,,Unknown,0,2012-12-06 11:23:00
5:32 AM,53.6,51.8,94,29.95,0.2,Calm,Calm,-,N/A,,Unknown,0,2012-12-06 11:32:00
5:52 AM,53.1,52.0,96,29.96,0.2,Calm,Calm,-,N/A,,Unknown,0,2012-12-06 11:52:00
6:41 AM,50.0,50.0,100,29.97,0.5,Calm,Calm,-,N/A,Fog,Fog,0,2012-12-06 12:41:00
6:52 AM,50.0,50.0,100,29.97,0.2,Calm,Calm,-,N/A,Fog,Fog,0,2012-12-06 12:52:00
7:03 AM,50.0,50.0,100,29.97,0.5,Calm,Calm,-,N/A,Fog,Fog,0,2012-12-06 13:03:00
7:52 AM,52.0,52.0,100,29.98,0.2,Calm,Calm,-,N/A,Fog,Fog,0,2012-12-06 13:52:00
8:52 AM,55.9,55.9,100,29.99,0.8,Calm,Calm,-,N/A,,Mist,0,2012-12-06 14:52:00
9:33 AM,60.8,60.8,100,29.99,1.5,Calm,Calm,-,N/A,,Clear,0,2012-12-06 15:33:00
9:37 AM,60.8,60.8,100,29.99,3.0,Calm,Calm,-,N/A,,Clear,0,2012-12-06 15:37:00
9:52 AM,62.1,61.0,96,29.99,10.0,Calm,Calm,-,N/A,,Clear,0,2012-12-06 15:52:00
10:52 AM,72.0,63.0,73,29.98,10.0,Calm,Calm,-,N/A,,Scattered Clouds,0,2012-12-06 16:52:00
11:52 AM,77.0,63.0,62,29.94,10.0,South,8.1,-,N/A,,Scattered Clouds,180,2012-12-06 17:52:00
12:52 PM,79.0,59.0,50,29.91,10.0,SSW,9.2,-,N/A,,Partly Cloudy,200,2012-12-06 18:52:00
1:52 PM,81.0,60.1,49,29.87,10.0,SSE,10.4,-,N/A,,Clear,150,2012-12-06 19:52:00
2:52 PM,81.0,57.9,45,29.86,10.0,SSW,6.9,-,N/A,,Clear,200,2012-12-06 20:52:00
3:52 PM,81.0,59.0,47,29.84,10.0,SE,6.9,-,N/A,,Scattered Clouds,140,2012-12-06 21:52:00
4:52 PM,79.0,60.1,52,29.83,10.0,South,9.2,-,N/A,,Clear,170,2012-12-06 22:52:00
5:52 PM,73.9,63.0,68,29.84,10.0,SSE,10.4,-,N/A,,Clear,150,2012-12-06 23:52:00
6:52 PM,71.1,64.0,78,29.86,10.0,SE,12.7,-,N/A,,Clear,140,2012-12-07 00:52:00
7:52 PM,68.0,64.0,87,29.87,10.0,SE,8.1,-,N/A,,Clear,130,2012-12-07 01:52:00
8:52 PM,66.9,64.0,90,29.87,10.0,SE,8.1,-,N/A,,Clear,140,2012-12-07 02:52:00
9:52 PM,64.0,63.0,96,29.88,10.0,SSE,8.1,-,N/A,,Clear,150,2012-12-07 03:52:00
10:52 PM,64.0,63.0,96,29.87,10.0,SE,6.9,-,N/A,,Clear,140,2012-12-07 04:52:00
11:52 PM,63.0,62.1,97,29.86,8.0,SE,5.8,-,0.01,,Clear,140,2012-12-07 05:52:00